Time,TemperatureF,DewpointF,PressureIn,WindDirection,WindDirectionDegrees,WindSpeedMPH,WindSpeedGustMPH,Humidity,HourlyPrecipIn,Conditions,Clouds,dailyrainin,SoftwareType,DateUTC
2013-04-04 00:00:00,28.0,-99.9,-100.00,SW,233,4.0,5.0,-999,0.00,,,0.00,,2013-04-04 05:00:00,
2013-04-04 00:03:00,29.0,-99.9,-100.00,WSW,237,3.0,4.0,-999,0.00,,,0.00,,2013-04-04 05:03:00,
2013-04-04 00:14:00,29.0,-99.9,-100.00,WSW,237,3.0,4.0,-999,0.00,,,0.00,,2013-04-04 05:14:00,
2013-04-04 00:23:00,29.0,-99.9,-100.00,WSW,237,3.0,4.0,-999,0.00,,,0.00,,2013-04-04 05:23:00,
2013-04-04 00:33:00,28.0,-99.9,-100.00,SW,233,4.0,5.0,-999,0.00,,,0.00,,2013-04-04 05:33:00,
2013-04-04 00:42:00,28.0,-99.9,-100.00,SW,233,4.0,5.0,-999,0.00,,,0.00,,2013-04-04 05:42:00,
2013-04-04 00:53:00,28.0,-99.9,-100.00,SW,233,4.0,5.0,-999,0.00,,,0.00,,2013-04-04 05:53:00,
2013-04-04 02:03:00,27.0,-99.9,-100.00,SW,220,3.0,4.0,-999,-99.99,,,0.00,,2013-04-04 07:03:00,
2013-04-04 02:13:00,27.0,-99.9,-100.00,SW,220,3.0,4.0,-999,-99.99,,,0.00,,2013-04-04 07:13:00,
2013-04-04 02:22:00,27.0,-99.9,-100.00,SW,220,3.0,4.0,-999,-99.99,,,0.00,,2013-04-04 07:22:00,
2013-04-04 02:32:00,28.0,-99.9,-100.00,SW,224,1.0,3.0,-999,0.00,,,0.00,,2013-04-04 07:32:00,
2013-04-04 02:43:00,28.0,-99.9,-100.00,SW,224,1.0,3.0,-999,0.00,,,0.00,,2013-04-04 07:43:00,
2013-04-04 02:53:00,28.0,-99.9,-100.00,SW,224,1.0,3.0,-999,0.00,,,0.00,,2013-04-04 07:53:00,
2013-04-04 03:03:00,28.0,-99.9,-100.00,SW,233,2.0,2.0,-999,0.00,,,0.00,,2013-04-04 08:03:00,
2013-04-04 03:12:00,28.0,-99.9,-100.00,SW,233,2.0,2.0,-999,0.00,,,0.00,,2013-04-04 08:12:00,
2013-04-04 03:23:00,28.0,-99.9,-100.00,SW,233,2.0,2.0,-999,0.00,,,0.00,,2013-04-04 08:23:00,
2013-04-04 03:30:00,27.0,-99.9,-100.00,SW,222,0.0,1.0,-999,0.00,,,0.00,,2013-04-04 08:30:00,
2013-04-04 03:33:00,29.0,-99.9,-100.00,SW,229,1.0,3.0,-999,0.00,,,0.00,,2013-04-04 08:33:00,
2013-04-04 03:44:00,29.0,-99.9,-100.00,SW,229,1.0,3.0,-999,0.00,,,0.00,,2013-04-04 08:44:00,
2013-04-04 03:53:00,29.0,-99.9,-100.00,SW,229,1.0,3.0,-999,0.00,,,0.00,,2013-04-04 08:53:00,
2013-04-04 04:03:00,27.0,-99.9,-100.00,SW,222,0.0,1.0,-999,0.00,,,0.00,,2013-04-04 09:03:00,
2013-04-04 04:13:00,27.0,-99.9,-100.00,SW,222,0.0,1.0,-999,0.00,,,0.00,,2013-04-04 09:13:00,
2013-04-04 04:23:00,27.0,-99.9,-100.00,SW,222,0.0,1.0,-999,0.00,,,0.00,,2013-04-04 09:23:00,
2013-04-04 05:00:00,30.0,-99.9,-100.00,WNW,296,2.0,2.0,-999,0.00,,,0.00,,2013-04-04 10:00:00,
2013-04-04 05:05:00,31.0,-99.9,-100.00,SW,228,2.0,3.0,-999,0.00,,,0.00,,2013-04-04 10:05:00,
2013-04-04 05:13:00,31.0,-99.9,-100.00,SW,228,2.0,3.0,-999,0.00,,,0.00,,2013-04-04 10:13:00,
2013-04-04 05:25:00,31.0,-99.9,-100.00,SW,228,2.0,3.0,-999,0.00,,,0.00,,2013-04-04 10:25:00,
2013-04-04 05:34:00,30.0,-99.9,-100.00,WNW,296,2.0,2.0,-999,0.00,,,0.00,,2013-04-04 10:34:00,
2013-04-04 05:43:00,30.0,-99.9,-100.00,WNW,296,2.0,2.0,-999,0.00,,,0.00,,2013-04-04 10:43:00,
2013-04-04 05:54:00,30.0,-99.9,-100.00,WNW,296,2.0,2.0,-999,0.00,,,0.00,,2013-04-04 10:54:00,
2013-04-04 06:30:00,27.0,-99.9,-100.00,SW,228,4.0,5.0,-999,0.00,,,0.00,,2013-04-04 11:30:00,
2013-04-04 06:34:00,28.0,-99.9,-100.00,WSW,237,2.0,3.0,-999,0.00,,,0.00,,2013-04-04 11:34:00,
2013-04-04 06:43:00,28.0,-99.9,-100.00,WSW,237,2.0,3.0,-999,0.00,,,0.00,,2013-04-04 11:43:00,
2013-04-04 06:55:00,28.0,-99.9,-100.00,WSW,237,2.0,3.0,-999,0.00,,,0.00,,2013-04-04 11:55:00,
2013-04-04 07:03:00,27.0,-99.9,-100.00,SW,228,4.0,5.0,-999,0.00,,,0.00,,2013-04-04 12:03:00,
2013-04-04 07:13:00,27.0,-99.9,-100.00,SW,228,4.0,5.0,-999,0.00,,,0.00,,2013-04-04 12:13:00,
2013-04-04 07:23:00,27.0,-99.9,-100.00,SW,228,4.0,5.0,-999,0.00,,,0.00,,2013-04-04 12:23:00,
2013-04-04 08:03:00,28.0,-99.9,-100.00,SW,224,4.0,5.0,-999,0.00,,,0.00,,2013-04-04 13:03:00,
2013-04-04 08:13:00,28.0,-99.9,-100.00,SW,224,4.0,5.0,-999,0.00,,,0.00,,2013-04-04 13:13:00,
2013-04-04 08:22:00,28.0,-99.9,-100.00,SW,224,4.0,5.0,-999,0.00,,,0.00,,2013-04-04 13:22:00,
2013-04-04 08:33:00,34.0,-99.9,-100.00,SE,143,1.0,3.0,-999,0.00,,,0.00,,2013-04-04 13:33:00,
2013-04-04 08:43:00,34.0,-99.9,-100.00,SE,143,1.0,3.0,-999,0.00,,,0.00,,2013-04-04 13:43:00,
2013-04-04 08:53:00,34.0,-99.9,-100.00,SE,143,1.0,3.0,-999,0.00,,,0.00,,2013-04-04 13:53:00,
2013-04-04 09:13:00,38.0,-99.9,-100.00,SSE,150,1.0,2.0,-999,0.00,,,0.00,,2013-04-04 14:13:00,
2013-04-04 09:22:00,38.0,-99.9,-100.00,SSE,150,1.0,2.0,-999,0.00,,,0.00,,2013-04-04 14:22:00,
2013-04-04 09:33:00,41.0,-99.9,-100.00,SSW,192,3.0,4.0,-999,0.00,,,0.00,,2013-04-04 14:33:00,
2013-04-04 09:43:00,41.0,-99.9,-100.00,SSW,192,3.0,4.0,-999,0.00,,,0.00,,2013-04-04 14:43:00,
2013-04-04 09:53:00,41.0,-99.9,-100.00,SSW,192,3.0,4.0,-999,0.00,,,0.00,,2013-04-04 14:53:00,
2013-04-04 10:00:00,47.0,-99.9,-100.00,SW,220,3.0,6.0,-999,0.00,,,0.00,,2013-04-04 15:00:00,
2013-04-04 10:03:00,44.0,-99.9,-100.00,South,188,3.0,4.0,-999,0.00,,,0.00,,2013-04-04 15:03:00,
2013-04-04 10:13:00,44.0,-99.9,-100.00,South,188,3.0,4.0,-999,0.00,,,0.00,,2013-04-04 15:13:00,
2013-04-04 10:24:00,44.0,-99.9,-100.00,South,188,3.0,4.0,-999,0.00,,,0.00,,2013-04-04 15:24:00,
2013-04-04 10:34:00,47.0,-99.9,-100.00,SW,220,3.0,6.0,-999,0.00,,,0.00,,2013-04-04 15:34:00,
2013-04-04 10:44:00,47.0,-99.9,-100.00,SW,220,3.0,6.0,-999,0.00,,,0.00,,2013-04-04 15:44:00,
2013-04-04 10:54:00,47.0,-99.9,-100.00,SW,220,3.0,6.0,-999,0.00,,,0.00,,2013-04-04 15:54:00,
2013-04-04 11:33:00,51.0,-99.9,-100.00,SW,222,4.0,10.0,-999,0.00,,,0.00,,2013-04-04 16:33:00,
2013-04-04 11:43:00,51.0,-99.9,-100.00,SW,222,4.0,10.0,-999,0.00,,,0.00,,2013-04-04 16:43:00,
2013-04-04 11:55:00,51.0,-99.9,-100.00,SW,222,4.0,10.0,-999,0.00,,,0.00,,2013-04-04 16:55:00,
2013-04-04 12:03:00,51.0,-99.9,-100.00,SW,214,3.0,6.0,-999,0.00,,,0.00,,2013-04-04 17:03:00,
2013-04-04 12:14:00,51.0,-99.9,-100.00,SW,214,3.0,6.0,-999,0.00,,,0.00,,2013-04-04 17:14:00,
2013-04-04 12:23:00,51.0,-99.9,-100.00,SW,214,3.0,6.0,-999,0.00,,,0.00,,2013-04-04 17:23:00,
2013-04-04 12:34:00,53.0,-99.9,-100.00,West,271,3.0,7.0,-999,0.00,,,0.00,,2013-04-04 17:34:00,
2013-04-04 12:43:00,53.0,-99.9,-100.00,West,271,3.0,7.0,-999,0.00,,,0.00,,2013-04-04 17:43:00,
2013-04-04 12:53:00,53.0,-99.9,-100.00,West,271,3.0,7.0,-999,0.00,,,0.00,,2013-04-04 17:53:00,
2013-04-04 13:03:00,55.0,-99.9,-100.00,WSW,240,3.0,9.0,-999,0.00,,,0.00,,2013-04-04 18:03:00,
2013-04-04 13:13:00,55.0,-99.9,-100.00,WSW,240,3.0,9.0,-999,0.00,,,0.00,,2013-04-04 18:13:00,
2013-04-04 13:23:00,55.0,-99.9,-100.00,WSW,240,3.0,9.0,-999,0.00,,,0.00,,2013-04-04 18:23:00,
2013-04-04 13:33:00,56.0,-99.9,-100.00,SW,220,5.0,11.0,-999,0.00,,,0.00,,2013-04-04 18:33:00,
2013-04-04 13:43:00,56.0,-99.9,-100.00,SW,220,5.0,11.0,-999,0.00,,,0.00,,2013-04-04 18:43:00,
2013-04-04 13:53:00,56.0,-99.9,-100.00,SW,220,5.0,11.0,-999,0.00,,,0.00,,2013-04-04 18:53:00,
2013-04-04 14:02:00,57.0,-99.9,-100.00,SW,222,5.0,9.0,-999,0.00,,,0.00,,2013-04-04 19:02:00,
2013-04-04 14:12:00,57.0,-99.9,-100.00,SW,222,5.0,9.0,-999,0.00,,,0.00,,2013-04-04 19:12:00,
2013-04-04 14:22:00,57.0,-99.9,-100.00,SW,222,5.0,9.0,-999,0.00,,,0.00,,2013-04-04 19:22:00,
2013-04-04 14:33:00,58.0,-99.9,-100.00,West,274,3.0,9.0,-999,0.00,,,0.00,,2013-04-04 19:33:00,
2013-04-04 14:43:00,58.0,-99.9,-100.00,West,274,3.0,9.0,-999,0.00,,,0.00,,2013-04-04 19:43:00,
2013-04-04 14:53:00,58.0,-99.9,-100.00,West,274,3.0,9.0,-999,0.00,,,0.00,,2013-04-04 19:53:00,
2013-04-04 15:04:00,58.0,-99.9,-100.00,SW,234,3.0,10.0,-999,0.00,,,0.00,,2013-04-04 20:04:00,
2013-04-04 15:13:00,58.0,-99.9,-100.00,SW,234,3.0,10.0,-999,0.00,,,0.00,,2013-04-04 20:13:00,
2013-04-04 15:23:00,58.0,-99.9,-100.00,SW,234,3.0,10.0,-999,0.00,,,0.00,,2013-04-04 20:23:00,
2013-04-04 15:33:00,60.0,-99.9,-100.00,WSW,245,4.0,9.0,-999,0.00,,,0.00,,2013-04-04 20:33:00,
2013-04-04 15:42:00,60.0,-99.9,-100.00,WSW,245,4.0,9.0,-999,0.00,,,0.00,,2013-04-04 20:42:00,
2013-04-04 15:53:00,60.0,-99.9,-100.00,WSW,245,4.0,9.0,-999,0.00,,,0.00,,2013-04-04 20:53:00,
2013-04-04 16:03:00,60.0,-99.9,-100.00,WSW,238,4.0,8.0,-999,0.00,,,0.00,,2013-04-04 21:03:00,
2013-04-04 16:12:00,60.0,-99.9,-100.00,WSW,238,4.0,8.0,-999,0.00,,,0.00,,2013-04-04 21:12:00,
2013-04-04 16:22:00,60.0,-99.9,-100.00,WSW,238,4.0,8.0,-999,0.00,,,0.00,,2013-04-04 21:22:00,
2013-04-04 16:30:00,59.0,-99.9,-100.00,WNW,290,4.0,9.0,-999,0.00,,,0.00,,2013-04-04 21:30:00,
2013-04-04 16:33:00,61.0,-99.9,-100.00,NNW,331,3.0,8.0,-999,0.00,,,0.00,,2013-04-04 21:33:00,
2013-04-04 16:43:00,61.0,-99.9,-100.00,NNW,331,3.0,8.0,-999,0.00,,,0.00,,2013-04-04 21:43:00,
2013-04-04 16:53:00,61.0,-99.9,-100.00,NNW,331,3.0,8.0,-999,0.00,,,0.00,,2013-04-04 21:53:00,
2013-04-04 17:04:00,59.0,-99.9,-100.00,WNW,290,4.0,9.0,-999,0.00,,,0.00,,2013-04-04 22:04:00,
2013-04-04 17:13:00,59.0,-99.9,-100.00,WNW,290,4.0,9.0,-999,0.00,,,0.00,,2013-04-04 22:13:00,
2013-04-04 17:23:00,59.0,-99.9,-100.00,WNW,290,4.0,9.0,-999,0.00,,,0.00,,2013-04-04 22:23:00,
2013-04-04 18:03:00,58.0,-99.9,-100.00,WNW,301,3.0,6.0,-999,0.00,,,0.00,,2013-04-04 23:03:00,
2013-04-04 18:13:00,58.0,-99.9,-100.00,WNW,301,3.0,6.0,-999,0.00,,,0.00,,2013-04-04 23:13:00,
2013-04-04 18:22:00,58.0,-99.9,-100.00,WNW,301,3.0,6.0,-999,0.00,,,0.00,,2013-04-04 23:22:00,
2013-04-04 18:32:00,58.0,-99.9,-100.00,NW,305,2.0,6.0,-999,0.00,,,-99.99,,2013-04-04 23:32:00,
2013-04-04 18:43:00,58.0,-99.9,-100.00,NW,305,2.0,6.0,-999,0.00,,,-99.99,,2013-04-04 23:43:00,
2013-04-04 18:53:00,58.0,-99.9,-100.00,NW,305,2.0,6.0,-999,0.00,,,-99.99,,2013-04-04 23:53:00,
2013-04-04 19:03:00,56.0,-99.9,-100.00,NW,311,5.0,7.0,-999,0.00,,,-99.99,,2013-04-05 00:03:00,
2013-04-04 19:12:00,56.0,-99.9,-100.00,NW,311,5.0,7.0,-999,0.00,,,-99.99,,2013-04-05 00:12:00,
2013-04-04 19:22:00,56.0,-99.9,-100.00,NW,311,5.0,7.0,-999,0.00,,,-99.99,,2013-04-05 00:22:00,
2013-04-04 19:33:00,55.0,-99.9,-100.00,NW,304,4.0,7.0,-999,0.00,,,0.00,,2013-04-05 00:33:00,
2013-04-04 19:43:00,55.0,-99.9,-100.00,NW,304,4.0,7.0,-999,0.00,,,0.00,,2013-04-05 00:43:00,
2013-04-04 19:52:00,55.0,-99.9,-100.00,NW,304,4.0,7.0,-999,0.00,,,0.00,,2013-04-05 00:52:00,
2013-04-04 20:03:00,53.0,-99.9,-100.00,WNW,296,3.0,5.0,-999,0.00,,,0.00,,2013-04-05 01:03:00,
2013-04-04 20:12:00,53.0,-99.9,-100.00,WNW,296,3.0,5.0,-999,0.00,,,0.00,,2013-04-05 01:12:00,
2013-04-04 20:23:00,53.0,-99.9,-100.00,WNW,296,3.0,5.0,-999,0.00,,,0.00,,2013-04-05 01:23:00,
2013-04-04 20:33:00,52.0,-99.9,-100.00,WNW,282,5.0,9.0,-999,0.00,,,0.00,,2013-04-05 01:33:00,
2013-04-04 20:43:00,52.0,-99.9,-100.00,WNW,282,5.0,9.0,-999,0.00,,,0.00,,2013-04-05 01:43:00,
2013-04-04 20:54:00,52.0,-99.9,-100.00,WNW,282,5.0,9.0,-999,0.00,,,0.00,,2013-04-05 01:54:00,
2013-04-04 21:03:00,51.0,-99.9,-100.00,WNW,291,3.0,4.0,-999,0.00,,,0.00,,2013-04-05 02:03:00,
2013-04-04 21:12:00,51.0,-99.9,-100.00,WNW,291,3.0,4.0,-999,0.00,,,0.00,,2013-04-05 02:12:00,
2013-04-04 21:22:00,51.0,-99.9,-100.00,WNW,291,3.0,4.0,-999,0.00,,,0.00,,2013-04-05 02:22:00,
2013-04-04 21:32:00,49.0,-99.9,-100.00,WNW,297,2.0,4.0,-999,0.00,,,0.00,,2013-04-05 02:32:00,
2013-04-04 21:42:00,49.0,-99.9,-100.00,WNW,297,2.0,4.0,-999,0.00,,,0.00,,2013-04-05 02:42:00,
2013-04-04 21:52:00,49.0,-99.9,-100.00,WNW,297,2.0,4.0,-999,0.00,,,0.00,,2013-04-05 02:52:00,
2013-04-04 22:02:00,48.0,-99.9,-100.00,WNW,303,4.0,11.0,-999,0.00,,,0.00,,2013-04-05 03:02:00,
2013-04-04 22:12:00,48.0,-99.9,-100.00,WNW,303,4.0,11.0,-999,0.00,,,0.00,,2013-04-05 03:12:00,
2013-04-04 22:22:00,48.0,-99.9,-100.00,WNW,303,4.0,11.0,-999,0.00,,,0.00,,2013-04-05 03:22:00,
2013-04-04 22:33:00,48.0,-99.9,-100.00,NW,317,4.0,6.0,-999,0.00,,,0.00,,2013-04-05 03:33:00,
2013-04-04 22:43:00,48.0,-99.9,-100.00,NW,317,4.0,6.0,-999,0.00,,,0.00,,2013-04-05 03:43:00,
2013-04-04 22:55:00,48.0,-99.9,-100.00,NW,317,4.0,6.0,-999,0.00,,,0.00,,2013-04-05 03:55:00,
2013-04-04 23:03:00,47.0,-99.9,-100.00,WNW,299,3.0,6.0,-999,0.00,,,0.00,,2013-04-05 04:03:00,
2013-04-04 23:13:00,47.0,-99.9,-100.00,WNW,299,3.0,6.0,-999,0.00,,,0.00,,2013-04-05 04:13:00,
2013-04-04 23:23:00,47.0,-99.9,-100.00,WNW,299,3.0,6.0,-999,0.00,,,0.00,,2013-04-05 04:23:00,
2013-04-04 23:33:00,45.0,-99.9,-100.00,NNW,340,6.0,7.0,-999,0.00,,,0.00,,2013-04-05 04:33:00,
2013-04-04 23:43:00,45.0,-99.9,-100.00,NNW,340,6.0,7.0,-999,0.00,,,0.00,,2013-04-05 04:43:00,
2013-04-04 23:53:00,45.0,-99.9,-100.00,NNW,340,6.0,7.0,-999,0.00,,,0.00,,2013-04-05 04:53:00,